Regional Weather Roundup
Issued by NWS

Home | Current Version | Previous Version | Text Only | Print | Product List | Glossary On
Versions: 1 2 3 4 5 6 7 8 9 10 11 12 13 14 15 16 17 18 19 20 21 22 23 24 25 26 27 28 29 30 31 32 33 34 35 36 37 38 39 40 41 42 43 44 45 46 47 48 49 50
000
ASCA42 TJSJ 221511
RWRPR
PUERTO RICO/U.S. VIRGIN ISLANDS HOURLY WEATHER ROUNDUP
NATIONAL WEATHER SERVICE SAN JUAN PR
1100 AM AST TUE JUL 22 2014

PRZ001-004-221600-
PUERTO RICO

CITY           SKY/WX    TMP DP  RH WIND       PRES   REMARKS
SAN JUAN LMM   MOSUNNY   84  75  74 NE15G21   30.09F HX  92
PONCE          MOSUNNY   90  72  55 SE17G23   30.03  HX  96
MAYAGUEZ       MOSUNNY   88  68  51 E8        30.09S HX  91
AGUADILLA      MOSUNNY   84  72  65 E14G20    30.10S
CEIBA          MOSUNNY   88  73  62 E13G22    30.12S HX  96
$$

PRZ006-007-221600-
U.S. VIRGIN ISLANDS

CITY           SKY/WX    TMP DP  RH WIND       PRES   REMARKS
CHARLOTTE AMA  SUNNY     88  72  58 SE18      30.08S HX  94
CHRISTIANSTED  PTSUNNY   88  73  62 E12       30.09S HX  96
$$

HOURLY WEATHER ROUNDUP FOR THE NEWS MEDIA

CITY           SKY/WX    TMP DP  RH WIND       PRES   REMARKS
MIAMI          PTSUNNY   85  75  72 SE7       30.08R HX  93
ORLANDO        SUNNY     84  76  76 S5        30.07F HX  93
NEW YORK       MOSUNNY   81  67  62 SW14      30.17S
NEWARK         MOSUNNY   83  68  60 SW7       30.15F
CHICAGO        MOSUNNY   81  64  56 SW12G21   30.00S
HARTFORD       SUNNY     82  69  64 S6        30.12S
BOSTON         MOSUNNY   78  66  66 SE7       30.11F
DALLAS         PTSUNNY   84  74  71 SE7       30.07F HX  91
PHILADELPHIA   MOSUNNY   81  66  60 SW5       30.18F


USA.gov is the U.S. government's official web portal to all federal, state and local government web resources and services.